Theta_e
317 317 316 316 316 316 316 317 317 317 317 317 317 317 317 317 315 302 299 306 309 318 318 303 300 299 296 294 296 300 290 287 290 291 293 296 294 299 300 297 297 304 302 306 326
316 316 315 315 315 316 316 316 316 317 317 317 317 316 317 315 307 297 309 314 316 320 306 297 295 297 290 292 296 295 288 290 293 294 292 292 291 293 291 290 294 298 299 303 303
316 315 314 314 314 315 316 316 316 316 316 316 316 316 316 311 298 296 313 314 318 315 304 300 297 296 290 292 292 293 289 292 291 293 292 291 289 291 288 287 293 291 293 294 295
316 315 314 314 314 314 315 315 316 316 316 316 316 316 317 303 287 298 317 314 315 306 301 298 296 291 289 288 292 289 291 291 294 293 290 288 290 288 288 289 292 291 292 293 296
316 315 314 314 314 314 315 315 315 316 316 315 315 316 306 293 292 302 313 307 304 302 298 297 293 292 288 289 289 287 289 291 292 291 290 291 288 288 288 290 291 293 294 294 295
316 315 314 314 314 314 315 315 315 315 315 314 315 315 301 289 300 302 301 302 301 300 297 297 295 295 292 288 287 290 290 289 290 291 291 289 286 286 288 290 292 292 291 291 291
316 315 314 314 314 314 314 314 315 315 314 314 314 309 294 292 298 300 301 299 301 300 296 298 298 294 292 288 293 291 287 287 288 290 287 286 283 283 287 290 290 290 290 290 291
315 315 314 314 314 314 314 314 314 314 313 313 313 303 289 299 297 300 300 298 301 301 299 299 299 296 293 292 291 287 284 278 285 286 287 286 278 285 287 289 288 290 291 290 290
315 314 314 314 314 314 313 311 312 312 312 313 300 295 287 303 296 299 298 296 298 298 298 300 297 291 289 282 279 279 274 277 280 285 286 285 280 286 289 289 288 289 289 290 291
314 314 314 314 314 313 313 312 310 309 304 305 299 289 292 290 296 297 298 298 295 294 293 293 288 283 280 277 270 275 276 278 278 283 285 283 282 286 288 287 287 288 289 289 290
314 315 314 313 314 313 307 297 291 291 293 288 290 290 293 296 298 295 297 296 295 290 282 287 280 277 279 280 282 280 280 278 280 285 282 281 281 284 286 286 286 286 287 288 289
314 315 314 313 313 313 302 293 291 291 282 293 293 293 296 295 290 293 297 289 288 282 284 281 278 282 284 284 282 280 278 274 280 284 282 281 280 284 285 285 286 286 287 287 288
315 314 313 313 313 302 296 295 301 297 284 289 292 292 293 293 288 290 292 290 284 282 281 278 282 285 283 280 280 279 277 278 277 281 281 280 276 279 283 285 287 288 288 288 288
315 314 313 312 302 297 295 300 301 294 278 283 286 290 292 292 287 294 293 289 286 280 281 280 284 283 281 279 281 278 282 281 280 275 266 279 267 276 281 283 285 286 286 286 287
314 314 312 311 298 294 298 300 298 290 273 284 285 293 291 288 287 289 293 289 282 282 280 279 280 280 280 280 283 279 283 281 280 272 268 268 267 273 280 280 282 285 286 286 288
314 313 312 306 298 299 299 296 291 279 273 279 285 284 284 286 287 288 287 290 288 283 282 280 285 283 281 284 284 284 282 279 278 270 264 268 269 272 274 278 281 284 286 287 287
314 313 309 305 296 299 297 289 278 273 281 277 279 282 281 282 283 283 282 281 279 273 275 279 281 283 285 279 283 281 275 263 263 261 265 274 266 274 279 280 282 283 284 286 287
313 312 307 303 302 300 293 285 277 276 274 281 281 281 278 281 280 281 279 276 281 278 274 272 271 281 284 280 278 278 275 265 260 262 265 275 268 274 281 283 284 284 285 286 287
312 303 301 302 303 300 289 277 278 278 283 279 280 276 276 280 279 277 277 275 280 281 273 273 274 281 283 283 281 278 275 278 264 260 265 267 273 279 282 281 283 283 284 284 285
302 300 298 303 302 298 285 280 276 283 282 280 277 277 271 275 273 273 275 279 281 284 282 278 271 279 280 282 281 279 281 271 267 260 256 264 266 273 277 278 280 281 282 283 285
299 293 296 302 299 288 280 281 283 286 286 281 277 277 277 276 275 270 273 279 283 281 283 279 275 275 280 277 275 276 275 276 273 270 263 262 271 277 277 278 280 281 283 284 285
297 286 296 299 285 284 281 281 288 284 287 285 283 280 279 279 276 275 273 277 284 283 279 281 276 268 273 278 280 280 277 277 267 266 270 270 271 281 282 281 281 282 283 284 285
290 285 293 294 281 280 284 283 284 282 283 283 282 282 281 280 275 277 273 282 284 281 278 281 269 262 269 274 279 277 278 280 276 273 270 264 271 280 281 282 283 282 283 284 285
288 281 283 286 286 284 281 280 280 285 284 285 283 283 281 279 280 273 274 281 284 278 287 284 272 269 269 271 275 274 275 278 275 264 270 272 274 277 279 279 281 282 283 284 284
289 285 285 279 282 284 285 283 280 281 284 285 282 281 281 278 278 274 276 279 282 286 283 278 267 271 273 275 274 275 275 275 273 274 267 273 272 276 279 279 281 282 283 282 283
286 284 285 285 284 284 285 283 281 282 282 281 281 282 282 280 282 277 279 278 278 280 280 278 265 268 265 271 272 272 274 275 275 275 274 274 273 280 281 281 280 282 281 280 282
293 291 289 286 284 282 283 285 284 285 285 287 284 283 280 283 284 284 284 281 280 279 278 277 269 263 262 268 265 266 270 273 273 274 273 270 276 279 278 280 281 279 280 281 282
Wind_Speed
9 9 10 10 11 11 11 11 12 13 14 15 16 16 16 14 9 6 8 6 8 16 15 8 5 6 4 1 2 3 3 3 4 4 4 5 7 2 6 3 6 3 3 2 2
9 10 10 10 11 12 12 12 13 14 14 15 16 16 16 14 3 7 5 14 15 16 8 6 6 7 3 1 2 4 3 7 1 1 2 4 4 7 7 6 5 2 4 5 3
9 11 12 11 11 11 11 12 12 13 13 13 14 15 16 6 2 4 10 15 16 15 4 3 4 1 2 1 2 3 6 2 2 4 2 4 3 3 3 7 1 8 16 2 6
9 10 11 12 12 12 12 11 11 12 13 13 14 15 15 2 2 3 10 13 12 9 7 5 5 4 3 2 3 2 0 2 2 1 2 4 4 5 8 9 7 8 9 8 3
8 10 11 11 12 13 13 13 13 13 13 15 15 14 5 4 0 4 10 9 5 6 9 6 7 4 3 3 5 2 4 7 6 9 5 4 5 5 11 8 8 8 8 9 10
7 9 10 11 12 12 13 14 13 14 14 13 12 12 2 1 2 6 8 6 5 6 7 7 4 2 2 2 1 4 6 9 7 6 4 4 5 2 7 5 8 7 9 9 10
6 8 9 10 11 12 12 13 13 13 13 12 9 3 2 2 2 6 8 3 5 2 3 2 2 4 3 2 4 4 6 8 3 2 2 2 8 7 7 5 10 11 10 11 11
7 8 10 12 12 12 12 13 14 13 14 11 9 1 1 2 2 4 6 2 6 1 2 1 2 1 2 2 3 5 3 5 3 8 1 6 8 11 9 8 13 14 15 11 11
8 8 9 12 12 13 14 14 14 13 11 9 3 1 1 1 2 5 1 3 6 2 3 3 3 3 5 3 5 6 3 3 10 1 5 5 9 11 12 12 18 15 14 14 15
8 8 8 11 13 13 15 17 8 7 4 1 2 2 3 2 4 5 4 3 2 5 4 4 5 3 4 5 2 3 5 5 6 6 5 11 19 17 15 9 16 16 14 11 13
8 8 8 10 11 12 8 4 5 2 6 1 1 2 1 6 2 4 3 4 3 3 3 2 5 3 4 2 3 2 3 7 7 6 8 8 13 22 22 11 12 13 11 11 13
7 8 9 10 10 12 2 3 1 2 1 1 0 0 1 2 2 5 6 4 4 1 3 5 2 4 2 1 1 2 4 7 8 2 7 13 22 21 11 7 6 9 11 10 8
8 7 8 8 9 4 2 2 1 2 1 1 1 1 1 2 0 4 4 2 2 2 1 4 2 4 2 3 4 3 4 4 8 6 5 13 9 7 4 3 7 9 9 8 7
10 8 5 5 4 2 2 2 2 3 5 3 2 0 1 1 2 1 1 2 1 1 1 2 0 2 1 2 4 4 3 4 7 7 3 7 10 9 5 9 8 10 9 8 7
12 10 5 4 1 0 1 2 1 3 5 1 2 1 1 2 2 2 1 1 3 2 4 2 4 2 1 5 5 7 3 7 4 3 4 6 3 12 4 8 10 9 9 7 7
14 12 8 3 1 3 3 4 4 9 8 0 1 1 2 1 1 1 1 2 3 2 1 4 2 3 5 1 3 4 5 4 3 3 4 4 5 10 4 8 5 6 8 9 9
14 11 7 4 2 4 4 4 7 5 4 5 4 3 2 2 1 2 1 2 4 4 4 4 3 1 3 2 3 4 5 6 8 6 7 2 3 15 13 10 9 15 12 10 9
14 12 3 3 3 3 3 5 4 4 7 0 2 2 4 4 2 1 1 3 4 3 3 3 7 6 4 5 4 2 5 7 7 3 7 2 10 12 9 10 10 11 9 9 10
21 4 4 3 4 4 4 2 10 9 7 9 4 2 4 3 4 2 6 5 6 7 7 4 6 1 3 3 7 3 3 3 4 1 3 5 8 14 14 6 7 10 9 12 15
4 4 2 7 7 4 3 7 6 3 6 5 10 5 7 4 3 3 5 5 5 5 2 4 3 1 1 3 2 4 5 3 4 2 7 7 8 17 11 10 9 13 14 14 19
3 4 0 7 7 4 4 7 7 4 4 8 8 5 6 8 7 5 6 3 4 4 4 4 4 3 1 8 9 4 3 2 4 5 6 6 15 10 9 7 15 13 15 23 22
1 4 1 1 4 3 4 8 2 4 2 2 4 4 9 9 7 4 9 6 6 8 8 5 4 4 12 1 0 4 7 7 7 7 5 3 21 3 13 9 11 23 21 22 22
4 2 1 2 6 7 4 5 6 4 4 3 5 6 4 8 2 7 5 2 6 7 9 7 2 4 9 5 3 5 6 6 2 3 10 4 18 4 9 27 24 22 22 21 21
4 4 1 3 0 5 7 6 6 6 4 3 3 3 3 5 3 5 4 3 5 5 7 7 4 8 8 5 3 5 6 6 7 4 6 21 33 36 29 25 25 24 23 19 21
3 4 6 7 8 6 7 8 7 11 10 10 4 12 10 6 4 6 2 3 1 5 5 6 6 3 8 9 6 15 16 17 18 22 12 35 18 32 28 26 25 22 19 20 20
5 5 3 3 4 17 12 12 14 5 11 8 13 11 10 14 10 8 8 5 7 4 7 4 4 2 5 6 7 17 22 21 25 23 20 26 33 29 29 21 17 20 15 17 23
2 2 2 8 6 13 15 21 13 11 12 11 19 9 14 22 4 3 2 3 5 11 11 8 5 4 8 4 8 13 10 12 6 6 9 12 16 15 14 13 19 17 15 19 20
Wind_Direction
18 5 360 359 355 355 355 352 353 353 354 354 356 355 353 353 343 22 42 308 316 318 323 300 336 355 97 321 229 123 79 215 243 183 251 357 6 307 288 319 328 43 82 266 32
11 2 356 355 354 352 351 350 348 347 346 349 349 347 347 347 35 50 332 343 336 328 330 338 335 0 36 276 339 94 146 222 270 100 309 333 355 319 356 339 297 320 94 47 15
1 358 354 353 350 347 346 345 343 338 338 341 341 340 335 329 78 346 331 348 342 337 268 279 273 244 48 90 22 177 200 220 148 93 353 307 291 302 321 313 251 309 308 334 271
354 354 351 349 347 343 338 337 336 334 334 336 337 336 329 293 141 288 333 344 348 349 8 5 14 33 70 108 344 250 231 23 282 327 291 263 266 288 209 231 266 277 272 291 193
342 344 341 340 339 337 335 332 332 332 333 336 336 336 351 44 183 295 337 343 4 19 30 16 41 4 79 347 347 2 318 313 305 309 282 270 262 265 265 247 273 284 307 299 308
326 334 335 332 328 329 328 327 326 326 329 335 343 337 335 82 299 331 354 351 6 38 27 35 29 327 357 3 54 326 309 288 289 281 289 284 271 43 270 302 319 320 309 306 303
307 316 326 324 325 324 322 319 318 318 322 328 346 350 23 163 351 337 5 304 349 16 54 41 24 56 353 359 345 317 326 320 229 276 3 2 292 222 252 338 305 302 311 297 284
302 311 322 322 317 316 317 316 312 310 314 318 331 355 166 317 276 9 346 344 331 277 106 308 37 159 105 309 21 360 18 344 292 352 77 79 277 287 280 328 297 299 293 288 274
290 298 313 316 315 314 315 314 304 304 304 304 338 60 334 16 3 305 308 314 310 332 355 348 51 51 15 59 25 10 273 299 314 349 348 57 280 261 286 298 288 288 289 289 286
279 285 302 315 317 317 320 314 289 329 338 278 273 26 347 298 305 321 300 354 345 330 35 44 41 66 25 51 226 300 323 306 255 293 354 292 265 280 278 266 281 284 284 276 273
269 278 297 312 314 321 345 1 18 351 39 197 192 203 346 303 287 344 339 2 31 23 20 7 66 183 184 150 138 183 242 256 261 280 318 267 281 287 296 292 280 277 275 271 270
253 274 293 311 318 327 25 71 9 286 276 238 207 62 98 336 320 322 1 63 55 81 3 21 222 204 179 182 31 287 300 285 287 325 340 298 290 270 281 259 246 265 275 273 280
227 252 285 309 323 355 73 127 41 42 268 250 186 146 228 5 227 309 37 13 93 101 43 176 196 158 56 14 331 276 217 271 254 320 257 315 301 324 322 276 269 275 251 266 267
208 221 250 312 349 315 295 165 83 86 53 218 226 233 58 56 284 299 54 138 82 170 230 226 144 128 44 262 152 279 192 262 284 15 264 68 285 305 285 290 295 281 284 293 289
200 200 212 158 258 19 308 128 85 56 357 109 185 104 121 190 124 258 263 123 151 186 90 266 170 192 226 215 166 235 336 280 280 203 43 334 69 272 314 278 274 271 291 256 248
199 186 162 138 151 219 114 57 47 42 257 220 84 236 133 243 232 285 346 46 142 101 21 257 347 177 213 259 232 335 307 20 20 117 19 245 125 274 236 220 231 257 275 258 274
194 178 156 142 219 137 93 48 36 144 348 265 203 179 239 194 265 13 311 269 177 66 357 312 205 160 140 17 41 52 34 329 347 5 226 191 31 244 266 246 250 273 269 259 267
176 150 28 353 71 86 64 57 187 235 218 26 129 110 195 163 217 179 296 281 249 85 102 125 320 175 164 182 179 227 165 153 256 277 272 113 245 249 239 272 265 263 256 281 275
143 134 140 122 48 33 71 163 205 205 160 146 62 159 265 219 174 150 205 211 209 174 162 133 279 133 180 148 131 179 214 172 96 160 2 238 285 284 270 261 282 293 282 293 293
121 124 89 112 108 67 73 222 237 218 126 102 175 164 193 217 137 131 206 203 183 180 145 174 312 225 114 65 263 179 157 79 0 331 287 265 264 247 282 285 291 295 290 288 293
97 124 98 124 77 89 210 223 281 243 178 168 194 159 206 184 178 217 223 270 164 123 107 129 115 287 71 202 179 159 218 142 120 165 196 304 280 214 246 262 293 291 291 306 302
245 143 337 167 104 181 190 195 254 286 313 281 132 155 183 173 180 234 222 219 167 145 162 189 140 231 225 251 207 196 196 155 144 243 231 194 267 252 272 276 305 309 303 301 301
129 89 323 246 171 196 211 211 166 224 224 228 241 219 200 172 220 197 205 304 155 157 163 176 236 342 333 3 24 231 204 198 133 101 205 167 266 212 298 314 306 304 302 303 304
139 145 5 301 113 233 155 202 200 211 241 222 286 137 131 211 224 200 221 218 163 146 148 118 169 186 207 195 136 219 217 204 179 184 261 231 278 287 292 300 303 306 302 305 311
164 219 173 191 236 199 163 172 188 193 197 190 252 222 186 201 174 220 209 119 33 192 131 141 209 210 270 267 249 257 248 238 234 243 229 277 266 275 290 295 298 297 305 313 311
162 167 218 184 200 190 189 211 207 154 159 202 227 206 203 221 192 194 145 184 195 164 156 180 257 95 282 292 279 269 257 242 242 253 253 261 272 274 276 284 285 300 313 308 314
201 111 182 171 176 173 211 218 211 161 222 210 207 201 215 229 95 110 224 260 185 160 180 162 137 82 271 339 329 286 238 211 179 192 202 219 242 266 290 298 305 312 310 311 314